Location: Chircca
(13.7944°S, 72.0608°W)
Time: 06:52:17
(UTC+00:00)

Cosmos 1707 - Pass Details

Date: 14 July 2020
Orbit: 517 x 529 km, 82.5° (Epoch: 07 August)

Event Time Altitude Azimuth Distance (km) Brightness Sun altitude
Rises 09:43:10 0° 351° (N) 2,647 6.4 -21.3°
Reaches altitude 10° 09:45:19 10° 348° (NNW) 1,766 5.5 -20.8°
Maximum altitude 09:49:09 65° 265° (W) 587 2.6 -19.9°
Enters shadow 09:50:25 39° 199° (SSW) 805 3.3 -19.6°
